Greenville/Spartanburg, SC

11:29 PM EDT on June 27, 2017 (GMT -0400)
Greenville-Spartanburg International

Weather History for KGSP - November, 2013

Change the Weather History Date:

Wednesday, November 6, 2013

  Actual Average Record
Temperature  
Mean Temperature 61 °F 55 °F  
Max Temperature 71 °F 67 °F 84 °F (1916)
Min Temperature 51 °F 44 °F 23 °F (1976)
Degree Days  
Heating Degree Days 4 10  
Month to date heating degree days 54 56  
Since 1 July heating degree days 179 226  
Cooling Degree Days 0 0  
Month to date cooling degree days 0 0  
Year to date cooling degree days 1527 1710  
Growing Degree Days 10 (Base 50)    
Moisture  
Dew Point 50 °F    
Average Humidity 74    
Maximum Humidity 93    
Minimum Humidity 55    
Precipitation  
Precipitation 0.00 in 0.11 in 1.28 in (1977)
Month to date precipitation 0.12 0.66  
Year to date precipitation 58.88 40.04  
Snow  
Snow 0.00 in 0.00 in T in (1951)
Month to date snowfall 0.0 0.0  
Since 1 July snowfall 0.0 0.0  
Since 1 September snowfall 0.0 0.0  
Snow Depth 0.00 in    
Sea Level Pressure  
Sea Level Pressure 30.28 in    
Wind  
Wind Speed 5 mph (NNE)    
Max Wind Speed 13 mph    
Max Gust Speed 16 mph    
Visibility 10 miles    
Events      
T = Trace of Precipitation, MM = Missing Value Source: NWS Daily Summary

Daily Weather History Graph

Daily Weather History Graph

Search for Another Location

Airport or City:

Trip Planner

Search our weather history database for the weather conditions in past years. The results will help you decide how hot, cold, wet, or windy it might be!

Date:

Astronomy

Nov. 06, 2013 Rise Set
Actual Time 6:54 AM EST 5:29 PM EST
Civil Twilight 6:28 AM EST 5:56 PM EST
Nautical Twilight 5:58 AM EST 6:26 PM EST
Astronomical Twilight 5:28 AM EST 6:56 PM EST
Moon 10:05 AM EST (11/6) 8:35 PM EST (11/6)
Length of Visible Light 11h 28m
Length of Day
10h 35m
Waxing Crescent, 13% of the Moon is Illuminated
Nov 6
Waxing Crescent
Nov 10
First Quarter
Nov 17
Full
Nov 25
Last Quarter
Dec 2
New

Hourly Weather History & Observations

Time (EST) Temp. Dew Point Humidity Pressure Visibility Wind Dir Wind Speed Gust Speed Precip Events Conditions
12:01 AM 51.8 °F 48.2 °F 88% 30.41 in 10.0 mi NE 9.2 mph - N/A   Overcast
12:53 AM 51.1 °F 48.9 °F 92% 30.39 in 10.0 mi NE 9.2 mph - N/A   Overcast
1:53 AM 52.0 °F 48.9 °F 89% 30.37 in 10.0 mi NNE 9.2 mph - N/A   Overcast
2:53 AM 52.0 °F 48.9 °F 89% 30.35 in 10.0 mi NNE 9.2 mph - N/A   Overcast
3:01 AM 51.8 °F 48.2 °F 88% 30.36 in 10.0 mi NNE 8.1 mph - N/A   Overcast
3:15 AM 51.8 °F 48.2 °F 88% 30.35 in 10.0 mi NNE 8.1 mph - N/A   Overcast
3:53 AM 51.1 °F 48.0 °F 89% 30.34 in 10.0 mi NE 6.9 mph - N/A   Overcast
4:02 AM 51.8 °F 48.2 °F 88% 30.34 in 10.0 mi NNE 6.9 mph - N/A   Overcast
4:53 AM 51.1 °F 48.0 °F 89% 30.33 in 10.0 mi NE 9.2 mph - N/A   Overcast
5:44 AM 51.8 °F 48.2 °F 88% 30.34 in 10.0 mi NNE 11.5 mph - N/A   Overcast
5:53 AM 51.1 °F 48.9 °F 92% 30.33 in 10.0 mi NNE 9.2 mph - N/A   Overcast
6:53 AM 52.0 °F 48.9 °F 89% 30.34 in 10.0 mi NNE 9.2 mph - N/A   Overcast
7:53 AM 53.1 °F 48.9 °F 86% 30.35 in 10.0 mi NE 9.2 mph - N/A   Overcast
8:53 AM 55.0 °F 48.9 °F 80% 30.35 in 10.0 mi NNE 9.2 mph - N/A   Overcast
9:53 AM 57.0 °F 48.9 °F 74% 30.35 in 10.0 mi ENE 5.8 mph - N/A   Overcast
10:53 AM 60.1 °F 48.9 °F 67% 30.33 in 10.0 mi Variable 4.6 mph - N/A   Overcast
11:27 AM 60.8 °F 50.0 °F 68% 30.33 in 10.0 mi NNE 5.8 mph - N/A   Overcast
11:53 AM 63.0 °F 50.0 °F 63% 30.30 in 10.0 mi NNW 3.5 mph - N/A   Overcast
12:17 PM 64.4 °F 51.8 °F 64% 30.30 in 10.0 mi North 5.8 mph - N/A   Overcast
12:53 PM 66.0 °F 51.1 °F 59% 30.26 in 10.0 mi NNE 6.9 mph - N/A   Mostly Cloudy
1:53 PM 68.0 °F 52.0 °F 56% 30.22 in 10.0 mi North 6.9 mph - N/A   Mostly Cloudy
2:53 PM 68.0 °F 53.1 °F 59% 30.21 in 10.0 mi ESE 4.6 mph - N/A   Mostly Cloudy
3:53 PM 68.0 °F 53.1 °F 59% 30.19 in 8.0 mi ENE 4.6 mph - N/A   Clear
4:53 PM 66.0 °F 53.1 °F 63% 30.18 in 10.0 mi NNE 3.5 mph - N/A   Partly Cloudy
5:53 PM 64.0 °F 54.0 °F 70% 30.18 in 10.0 mi Calm Calm - N/A   Overcast
6:53 PM 61.0 °F 53.1 °F 75% 30.17 in 10.0 mi East 4.6 mph - N/A   Clear
7:53 PM 60.1 °F 52.0 °F 75% 30.16 in 10.0 mi North 4.6 mph - N/A   Clear
8:53 PM 57.0 °F 51.1 °F 81% 30.15 in 10.0 mi Calm Calm - N/A   Clear
9:53 PM 55.0 °F 52.0 °F 89% 30.14 in 10.0 mi Calm Calm - N/A   Clear
10:53 PM 54.0 °F 52.0 °F 93% 30.14 in 10.0 mi Calm Calm - N/A   Partly Cloudy
11:53 PM 55.9 °F 53.1 °F 90% 30.12 in 10.0 mi Calm Calm - N/A   Overcast